| time (UTC) | temp F | wind direction | speed knots | gust knots | rain 1hr in | rain 24hr in | rain mn in | humidity % | barometer mb |
| 20260506143506 | 67 | 97 | 0.0 | 3.5 | 0.00 | 0.00 | 0.00 | 66 | 1013.3 |
| 20260506143007 | 67 | 107 | 0.0 | 3.5 | 0.00 | 0.00 | 0.00 | 66 | 1013.5 |
| 20260506142507 | 67 | 107 | 0.0 | 3.5 | 0.00 | 0.00 | 0.00 | 66 | 1013.5 |
| 20260506142006 | 68 | 108 | 0.0 | 0.0 | 0.00 | 0.00 | 0.00 | 66 | 1013.6 |
| 20260506141506 | 68 | 90 | 0.0 | 0.0 | 0.00 | 0.00 | 0.00 | 65 | 1013.6 |
| 20260506141006 | 67 | 104 | 0.0 | 3.5 | 0.00 | 0.00 | 0.00 | 66 | 1013.5 |
| 20260506140507 | 67 | 112 | 0.0 | 3.5 | 0.00 | 0.00 | 0.00 | 67 | 1013.6 |
| 20260506140006 | 66 | 100 | 0.0 | 3.5 | 0.00 | 0.00 | 0.00 | 67 | 1013.3 |
| 20260506135507 | 66 | 120 | 0.0 | 3.5 | 0.00 | 0.00 | 0.00 | 67 | 1013.4 |
| 20260506135006 | 66 | 118 | 0.0 | 0.0 | 0.00 | 0.00 | 0.00 | 68 | 1013.6 |
| 20260506134506 | 66 | 107 | 0.0 | 0.0 | 0.00 | 0.00 | 0.00 | 68 | 1013.6 |
| 20260506134006 | 65 | 114 | 0.0 | 0.0 | 0.00 | 0.00 | 0.00 | 68 | 1013.6 |
| 20260506133506 | 65 | 91 | 0.0 | 0.0 | 0.00 | 0.00 | 0.00 | 68 | 1013.5 |
| 20260506133006 | 65 | 93 | 0.0 | 0.0 | 0.00 | 0.00 | 0.00 | 69 | 1013.5 |
| 20260506132506 | 65 | 107 | 0.0 | 0.0 | 0.00 | 0.00 | 0.00 | 69 | 1013.5 |
| 20260506132006 | 65 | 115 | 0.0 | 0.0 | 0.00 | 0.00 | 0.00 | 69 | 1013.5 |
| 20260506131506 | 65 | 109 | 0.0 | 0.0 | 0.00 | 0.00 | 0.00 | 69 | 1013.5 |
| 20260506131006 | 65 | 103 | 0.0 | 0.0 | 0.00 | 0.00 | 0.00 | 68 | 1013.6 |
| 20260506130506 | 65 | 104 | 0.0 | 0.0 | 0.00 | 0.00 | 0.00 | 68 | 1013.6 |
| 20260506130006 | 65 | 113 | 0.0 | 0.0 | 0.00 | 0.00 | 0.00 | 68 | 1013.5 |
| 20260506125506 | 65 | 106 | 0.0 | 0.0 | 0.00 | 0.00 | 0.00 | 68 | 1013.3 |
| 20260506125006 | 65 | 109 | 0.0 | 0.0 | 0.00 | 0.00 | 0.00 | 68 | 1013.3 |
| 20260506124506 | 65 | 92 | 0.0 | 1.7 | 0.00 | 0.00 | 0.00 | 68 | 1013.3 |
| 20260506124006 | 65 | 98 | 0.0 | 1.7 | 0.00 | 0.00 | 0.00 | 68 | 1013.4 |
| 20260506123506 | 64 | 94 | 0.0 | 1.7 | 0.00 | 0.00 | 0.00 | 68 | 1013.2 |
| 20260506123006 | 64 | 97 | 0.0 | 1.7 | 0.00 | 0.00 | 0.00 | 68 | 1013.1 |
| 20260506122506 | 64 | 107 | 0.0 | 1.7 | 0.00 | 0.00 | 0.00 | 68 | 1013.1 |
| 20260506122006 | 64 | 95 | 0.0 | 1.7 | 0.00 | 0.00 | 0.00 | 68 | 1013.0 |
| 20260506121506 | 64 | 84 | 0.0 | 1.7 | 0.00 | 0.00 | 0.00 | 68 | 1012.9 |
| 20260506121006 | 64 | 101 | 0.0 | 0.0 | 0.00 | 0.00 | 0.00 | 69 | 1012.9 |
| 20260506120506 | 64 | 98 | 0.0 | 0.0 | 0.00 | 0.00 | 0.00 | 69 | 1012.8 |
| 20260506120006 | 64 | 115 | 0.0 | 0.0 | 0.00 | 0.00 | 0.00 | 69 | 1012.9 |
| 20260506115506 | 64 | 105 | 0.0 | 0.0 | 0.00 | 0.00 | 0.00 | 69 | 1012.9 |
| 20260506115006 | 64 | 95 | 0.0 | 1.7 | 0.00 | 0.00 | 0.00 | 69 | 1013.0 |
| 20260506114506 | 63 | 108 | 0.0 | 1.7 | 0.00 | 0.00 | 0.00 | 69 | 1013.2 |
| 20260506114006 | 63 | 103 | 0.0 | 1.7 | 0.00 | 0.00 | 0.00 | 69 | 1013.2 |
| 20260506113506 | 64 | 101 | 0.0 | 1.7 | 0.00 | 0.00 | 0.00 | 69 | 1013.1 |
| 20260506113006 | 64 | 101 | 0.0 | 1.7 | 0.00 | 0.00 | 0.00 | 69 | 1013.1 |
| 20260506112506 | 64 | 102 | 0.0 | 1.7 | 0.00 | 0.00 | 0.00 | 69 | 1013.0 |
| 20260506112005 | 64 | 90 | 0.0 | 1.7 | 0.00 | 0.00 | 0.00 | 69 | 1012.9 |
| 20260506111505 | 64 | 98 | 0.0 | 1.7 | 0.00 | 0.00 | 0.00 | 69 | 1012.9 |
| 20260506111006 | 63 | 104 | 0.0 | 0.0 | 0.00 | 0.00 | 0.00 | 69 | 1013.0 |
| 20260506110505 | 63 | 103 | 0.0 | 0.0 | 0.00 | 0.00 | 0.00 | 69 | 1012.9 |
| 20260506110005 | 63 | 114 | 0.0 | 0.0 | 0.00 | 0.00 | 0.00 | 69 | 1012.8 |
| 20260506105506 | 64 | 98 | 0.0 | 1.7 | 0.00 | 0.00 | 0.00 | 69 | 1012.8 |
| 20260506105006 | 63 | 104 | 0.0 | 1.7 | 0.00 | 0.00 | 0.00 | 69 | 1012.8 |
| 20260506104505 | 63 | 96 | 0.0 | 1.7 | 0.00 | 0.00 | 0.00 | 69 | 1012.8 |
| 20260506104005 | 64 | 88 | 0.0 | 1.7 | 0.00 | 0.00 | 0.00 | 69 | 1013.0 |
| 20260506103506 | 64 | 101 | 0.9 | 1.7 | 0.00 | 0.00 | 0.00 | 68 | 1013.1 |
| 20260506103005 | 64 | 101 | 0.0 | 1.7 | 0.00 | 0.00 | 0.00 | 68 | 1013.0 |
| 20260506102505 | 63 | 96 | 0.0 | 1.7 | 0.00 | 0.00 | 0.00 | 68 | 1013.0 |
| 20260506102005 | 63 | 105 | 0.0 | 3.5 | 0.00 | 0.00 | 0.00 | 68 | 1013.0 |
| 20260506101505 | 63 | 97 | 0.0 | 3.5 | 0.00 | 0.00 | 0.00 | 69 | 1013.1 |
| 20260506101006 | 63 | 89 | 0.0 | 1.7 | 0.00 | 0.00 | 0.00 | 68 | 1013.0 |
| 20260506100506 | 63 | 112 | 0.0 | 1.7 | 0.00 | 0.00 | 0.00 | 68 | 1013.1 |
| 20260506100005 | 63 | 82 | 0.0 | 1.7 | 0.00 | 0.00 | 0.00 | 69 | 1013.0 |
| 20260506095505 | 63 | 107 | 0.0 | 0.0 | 0.00 | 0.00 | 0.00 | 69 | 1013.0 |
| 20260506095005 | 63 | 95 | 0.0 | 0.0 | 0.00 | 0.00 | 0.00 | 69 | 1013.1 |
| 20260506094506 | 63 | 106 | 0.0 | 0.0 | 0.00 | 0.00 | 0.00 | 69 | 1013.0 |
| 20260506094005 | 63 | 91 | 0.0 | 1.7 | 0.00 | 0.00 | 0.00 | 69 | 1013.0 |
| 20260506093505 | 63 | 108 | 0.0 | 3.5 | 0.00 | 0.00 | 0.00 | 69 | 1012.8 |
| 20260506093005 | 63 | 105 | 0.0 | 3.5 | 0.00 | 0.00 | 0.00 | 68 | 1013.0 |
| 20260506092505 | 63 | 100 | 0.0 | 1.7 | 0.00 | 0.00 | 0.00 | 68 | 1012.8 |
| 20260506092005 | 63 | 98 | 0.0 | 0.0 | 0.00 | 0.00 | 0.00 | 68 | 1012.8 |
| 20260506091505 | 63 | 92 | 0.0 | 0.0 | 0.00 | 0.00 | 0.00 | 68 | 1012.9 |
| 20260506091005 | 63 | 101 | 0.0 | 1.7 | 0.00 | 0.00 | 0.00 | 68 | 1013.0 |
| 20260506090505 | 63 | 118 | 0.0 | 1.7 | 0.00 | 0.00 | 0.00 | 68 | 1013.1 |
| 20260506090005 | 63 | 98 | 0.0 | 1.7 | 0.00 | 0.00 | 0.00 | 68 | 1013.0 |
| 20260506085505 | 63 | 94 | 0.0 | 1.7 | 0.00 | 0.00 | 0.00 | 68 | 1013.1 |
| 20260506085005 | 63 | 90 | 0.0 | 1.7 | 0.00 | 0.00 | 0.00 | 68 | 1013.3 |
| 20260506084505 | 63 | 95 | 0.0 | 0.0 | 0.00 | 0.00 | 0.00 | 68 | 1013.4 |
| 20260506084005 | 63 | 102 | 0.0 | 0.0 | 0.00 | 0.00 | 0.00 | 68 | 1013.4 |
| 20260506083505 | 63 | 111 | 0.0 | 0.0 | 0.00 | 0.00 | 0.00 | 68 | 1013.5 |
| 20260506083005 | 63 | 97 | 0.0 | 1.7 | 0.00 | 0.00 | 0.00 | 68 | 1013.5 |
| 20260506082505 | 63 | 96 | 0.0 | 1.7 | 0.00 | 0.00 | 0.00 | 68 | 1013.5 |
| 20260506082005 | 63 | 84 | 0.0 | 1.7 | 0.00 | 0.00 | 0.00 | 68 | 1013.5 |
| 20260506081505 | 63 | 89 | 0.0 | 1.7 | 0.00 | 0.00 | 0.00 | 68 | 1013.5 |
| 20260506081005 | 63 | 89 | 0.0 | 1.7 | 0.00 | 0.00 | 0.00 | 68 | 1013.5 |
| 20260506080505 | 63 | 95 | 0.0 | 1.7 | 0.00 | 0.00 | 0.00 | 68 | 1013.5 |
| 20260506073505 | 63 | 104 | 0.0 | 1.7 | 0.00 | 0.00 | 0.00 | 68 | 1013.6 |
| 20260506073005 | 63 | 112 | 0.0 | 1.7 | 0.00 | 0.00 | 0.00 | 68 | 1013.6 |
| 20260506072505 | 63 | 97 | 0.0 | 0.0 | 0.00 | 0.00 | 0.00 | 68 | 1013.5 |
| 20260506072004 | 63 | 105 | 0.0 | 0.0 | 0.00 | 0.00 | 0.00 | 68 | 1013.6 |
| 20260506071504 | 63 | 115 | 0.0 | 0.0 | 0.00 | 0.00 | 0.00 | 68 | 1013.5 |
| 20260506071005 | 64 | 105 | 0.0 | 1.7 | 0.00 | 0.00 | 0.00 | 68 | 1013.7 |
| 20260506070505 | 64 | 75 | 0.0 | 1.7 | 0.00 | 0.00 | 0.00 | 68 | 1013.7 |
| 20260506062505 | 64 | 92 | 0.0 | 1.7 | 0.00 | 0.00 | 0.00 | 68 | 1014.0 |
| 20260506062004 | 64 | 115 | 0.0 | 1.7 | 0.00 | 0.00 | 0.00 | 68 | 1014.0 |
| 20260506061504 | 64 | 75 | 0.0 | 1.7 | 0.00 | 0.00 | 0.00 | 68 | 1013.9 |
| 20260506061005 | 64 | 105 | 0.0 | 1.7 | 0.00 | 0.00 | 0.00 | 68 | 1013.9 |
| 20260506060505 | 65 | 96 | 0.0 | 1.7 | 0.00 | 0.00 | 0.00 | 68 | 1014.0 |
| 20260506051004 | 66 | 89 | 0.0 | 1.7 | 0.00 | 0.00 | 0.00 | 65 | 1014.4 |
| 20260506050504 | 66 | 96 | 0.0 | 1.7 | 0.00 | 0.00 | 0.00 | 65 | 1014.5 |
| 20260506045004 | 66 | 100 | 0.0 | 1.7 | 0.00 | 0.00 | 0.00 | 64 | 1014.5 |
| 20260506044504 | 67 | 101 | 0.0 | 1.7 | 0.00 | 0.00 | 0.00 | 63 | 1014.5 |
| 20260506044004 | 67 | 94 | 0.0 | 3.5 | 0.00 | 0.00 | 0.00 | 63 | 1014.5 |
| 20260506043504 | 67 | 103 | 0.0 | 3.5 | 0.00 | 0.00 | 0.00 | 63 | 1014.4 |
| 20260506043004 | 67 | 99 | 0.0 | 1.7 | 0.00 | 0.00 | 0.00 | 62 | 1014.3 |
| 20260506042504 | 67 | 94 | 0.0 | 1.7 | 0.00 | 0.00 | 0.00 | 62 | 1014.4 |
| 20260506042004 | 67 | 102 | 0.0 | 1.7 | 0.00 | 0.00 | 0.00 | 62 | 1014.5 |
| 20260506041504 | 68 | 84 | 0.0 | 1.7 | 0.00 | 0.00 | 0.00 | 61 | 1014.5 |
| 20260506041003 | 68 | 101 | 0.0 | 1.7 | 0.00 | 0.00 | 0.00 | 61 | 1014.5 |
| 20260506040504 | 68 | 103 | 0.0 | 1.7 | 0.00 | 0.00 | 0.00 | 61 | 1014.5 |
| 20260506040004 | 68 | 90 | 0.0 | 3.5 | 0.00 | 0.00 | 0.00 | 60 | 1014.5 |
| 20260506035504 | 68 | 73 | 0.0 | 3.5 | 0.00 | 0.00 | 0.00 | 60 | 1014.5 |
| 20260506035004 | 68 | 115 | 0.0 | 1.7 | 0.00 | 0.00 | 0.00 | 59 | 1014.4 |
| 20260506034503 | 68 | 63 | 0.0 | 1.7 | 0.00 | 0.00 | 0.00 | 59 | 1014.4 |
| 20260506034004 | 69 | 102 | 0.0 | 3.5 | 0.00 | 0.00 | 0.00 | 59 | 1014.5 |
| 20260506033504 | 69 | 93 | 0.0 | 3.5 | 0.00 | 0.00 | 0.00 | 58 | 1014.5 |
| 20260506033004 | 69 | 105 | 0.0 | 5.2 | 0.00 | 0.00 | 0.00 | 58 | 1014.5 |
| 20260506032504 | 69 | 104 | 0.0 | 5.2 | 0.00 | 0.00 | 0.00 | 58 | 1014.4 |
| 20260506032004 | 69 | 97 | 0.0 | 3.5 | 0.00 | 0.00 | 0.00 | 58 | 1014.5 |
| 20260506031504 | 69 | 111 | 0.0 | 1.7 | 0.00 | 0.00 | 0.00 | 57 | 1014.5 |
| 20260506031004 | 69 | 86 | 0.0 | 1.7 | 0.00 | 0.00 | 0.00 | 57 | 1014.5 |
| 20260506030503 | 69 | 94 | 0.0 | 5.2 | 0.00 | 0.00 | 0.00 | 57 | 1014.4 |
| 20260506030004 | 70 | 91 | 0.0 | 5.2 | 0.00 | 0.00 | 0.00 | 57 | 1014.4 |
| 20260506025504 | 70 | 86 | 0.0 | 3.5 | 0.00 | 0.00 | 0.00 | 56 | 1014.5 |
| 20260506025003 | 70 | 101 | 0.0 | 1.7 | 0.00 | 0.00 | 0.00 | 56 | 1014.4 |
| 20260506024503 | 70 | 104 | 0.0 | 1.7 | 0.00 | 0.00 | 0.00 | 56 | 1014.5 |
| 20260506024004 | 70 | 101 | 0.0 | 1.7 | 0.00 | 0.00 | 0.00 | 56 | 1014.5 |
| 20260506023503 | 70 | 97 | 0.0 | 1.7 | 0.00 | 0.00 | 0.00 | 56 | 1014.5 |
| 20260506023003 | 70 | 91 | 0.0 | 1.7 | 0.00 | 0.00 | 0.00 | 56 | 1014.5 |
| 20260506022504 | 70 | 96 | 0.0 | 1.7 | 0.00 | 0.00 | 0.00 | 56 | 1014.4 |
| 20260506022003 | 70 | 108 | 0.0 | 1.7 | 0.00 | 0.00 | 0.00 | 56 | 1014.3 |
| 20260506021503 | 70 | 88 | 0.0 | 0.0 | 0.00 | 0.00 | 0.00 | 55 | 1014.3 |
| 20260506021003 | 70 | 92 | 0.0 | 0.0 | 0.00 | 0.00 | 0.00 | 55 | 1014.3 |
| 20260506020503 | 70 | 88 | 0.0 | 0.0 | 0.00 | 0.00 | 0.00 | 55 | 1014.3 |
| 20260506020003 | 70 | 101 | 0.0 | 0.0 | 0.00 | 0.00 | 0.00 | 55 | 1014.2 |
| 20260506015503 | 70 | 101 | 0.0 | 0.0 | 0.00 | 0.00 | 0.00 | 54 | 1014.0 |
| 20260506015003 | 70 | 97 | 0.0 | 0.0 | 0.00 | 0.00 | 0.00 | 54 | 1014.0 |
| 20260506014503 | 70 | 102 | 0.0 | 0.0 | 0.00 | 0.00 | 0.00 | 54 | 1013.9 |
| 20260506014003 | 71 | 108 | 0.0 | 0.0 | 0.00 | 0.00 | 0.00 | 53 | 1013.9 |
| 20260506013503 | 71 | 92 | 0.0 | 0.0 | 0.00 | 0.00 | 0.00 | 53 | 1013.9 |
| 20260506013003 | 71 | 88 | 0.0 | 0.0 | 0.00 | 0.00 | 0.00 | 53 | 1013.8 |
| 20260506012503 | 71 | 98 | 0.0 | 0.0 | 0.00 | 0.00 | 0.00 | 52 | 1013.7 |
| 20260506012002 | 71 | 86 | 0.0 | 0.0 | 0.00 | 0.00 | 0.00 | 52 | 1013.7 |
| 20260506011502 | 71 | 93 | 0.0 | 0.0 | 0.00 | 0.00 | 0.00 | 52 | 1013.6 |
| 20260506011003 | 71 | 86 | 0.0 | 0.0 | 0.00 | 0.00 | 0.00 | 51 | 1013.5 |
| 20260506010503 | 72 | 77 | 0.0 | 0.0 | 0.00 | 0.00 | 0.00 | 50 | 1013.6 |
| 20260506010003 | 72 | 83 | 0.0 | 0.0 | 0.00 | 0.00 | 0.00 | 50 | 1013.5 |
| 20260506005503 | 72 | 103 | 0.0 | 0.0 | 0.00 | 0.00 | 0.00 | 49 | 1013.5 |
| 20260506005003 | 72 | 81 | 0.0 | 0.0 | 0.00 | 0.00 | 0.00 | 48 | 1013.4 |
| 20260506004503 | 72 | 85 | 0.0 | 0.0 | 0.00 | 0.00 | 0.00 | 48 | 1013.4 |
| 20260506004003 | 73 | 84 | 0.0 | 0.0 | 0.00 | 0.00 | 0.00 | 47 | 1013.4 |
| 20260506003503 | 73 | 98 | 0.0 | 0.0 | 0.00 | 0.00 | 0.00 | 47 | 1013.4 |
| 20260506003003 | 73 | 92 | 0.0 | 0.0 | 0.00 | 0.00 | 0.00 | 46 | 1013.4 |
| 20260506002502 | 74 | 89 | 0.0 | 0.0 | 0.00 | 0.00 | 0.00 | 45 | 1013.3 |
| 20260506002002 | 74 | 103 | 0.0 | 0.0 | 0.00 | 0.00 | 0.00 | 45 | 1013.3 |
| 20260506001502 | 74 | 84 | 0.0 | 0.0 | 0.00 | 0.00 | 0.00 | 44 | 1013.2 |
| 20260506001002 | 74 | 80 | 0.0 | 0.0 | 0.00 | 0.00 | 0.00 | 44 | 1013.2 |
| 20260506000502 | 74 | 87 | 0.0 | 0.0 | 0.00 | 0.00 | 0.00 | 44 | 1013.2 |
| 20260506000003 | 75 | 101 | 0.0 | 0.0 | 0.00 | 0.00 | 0.00 | 43 | 1013.2 |
| 20260505235502 | 75 | 91 | 0.0 | 0.0 | 0.00 | 0.00 | 0.00 | 43 | 1013.0 |
| 20260505235002 | 75 | 100 | 0.0 | 0.0 | 0.00 | 0.00 | 0.00 | 43 | 1013.1 |
| 20260505234503 | 76 | 94 | 0.0 | 1.7 | 0.00 | 0.00 | 0.00 | 42 | 1013.0 |
| 20260505234002 | 76 | 101 | 0.0 | 1.7 | 0.00 | 0.00 | 0.00 | 42 | 1013.1 |
| 20260505233502 | 76 | 114 | 0.0 | 1.7 | 0.00 | 0.00 | 0.00 | 42 | 1013.1 |
| 20260505233002 | 76 | 109 | 0.0 | 1.7 | 0.00 | 0.00 | 0.00 | 42 | 1013.0 |
| 20260505232502 | 76 | 96 | 0.0 | 3.5 | 0.00 | 0.00 | 0.00 | 41 | 1013.0 |
| 20260505232002 | 76 | 91 | 0.0 | 3.5 | 0.00 | 0.00 | 0.00 | 41 | 1013.0 |
| 20260505231502 | 77 | 85 | 0.0 | 3.5 | 0.00 | 0.00 | 0.00 | 41 | 1013.0 |
| 20260505231002 | 77 | 104 | 0.0 | 3.5 | 0.00 | 0.00 | 0.00 | 40 | 1013.0 |
| 20260505230502 | 77 | 74 | 0.0 | 1.7 | 0.00 | 0.00 | 0.00 | 41 | 1013.2 |
| 20260505230002 | 77 | 107 | 0.0 | 1.7 | 0.00 | 0.00 | 0.00 | 40 | 1013.1 |
| 20260505225502 | 77 | 91 | 0.0 | 1.7 | 0.00 | 0.00 | 0.00 | 40 | 1013.1 |
| 20260505225002 | 78 | 91 | 0.0 | 3.5 | 0.00 | 0.00 | 0.00 | 39 | 1013.1 |
| 20260505224502 | 78 | 88 | 0.0 | 3.5 | 0.00 | 0.00 | 0.00 | 39 | 1013.0 |
| 20260505224002 | 78 | 95 | 0.0 | 1.7 | 0.00 | 0.00 | 0.00 | 39 | 1013.2 |
| 20260505223502 | 77 | 101 | 0.0 | 1.7 | 0.00 | 0.00 | 0.00 | 40 | 1013.1 |
| 20260505223002 | 77 | 119 | 0.0 | 3.5 | 0.00 | 0.00 | 0.00 | 39 | 1013.1 |
| 20260505222502 | 78 | 124 | 0.0 | 3.5 | 0.00 | 0.00 | 0.00 | 39 | 1013.2 |
| 20260505222002 | 78 | 104 | 0.0 | 3.5 | 0.00 | 0.00 | 0.00 | 38 | 1013.3 |
| 20260505221502 | 78 | 106 | 0.0 | 3.5 | 0.00 | 0.00 | 0.00 | 38 | 1013.2 |
| 20260505221002 | 78 | 99 | 0.0 | 1.7 | 0.00 | 0.00 | 0.00 | 39 | 1013.1 |
| 20260505220502 | 78 | 96 | 0.0 | 3.5 | 0.00 | 0.00 | 0.00 | 38 | 1013.0 |
| 20260505220002 | 79 | 105 | 0.0 | 5.2 | 0.00 | 0.00 | 0.00 | 38 | 1013.3 |
| 20260505215502 | 79 | 119 | 0.0 | 5.2 | 0.00 | 0.00 | 0.00 | 38 | 1013.1 |
| 20260505215002 | 79 | 104 | 0.0 | 3.5 | 0.00 | 0.00 | 0.00 | 37 | 1013.1 |
| 20260505214502 | 79 | 102 | 0.0 | 3.5 | 0.00 | 0.00 | 0.00 | 37 | 1013.2 |
| 20260505214002 | 79 | 88 | 0.0 | 7.0 | 0.00 | 0.00 | 0.00 | 37 | 1013.1 |
| 20260505213502 | 80 | 97 | 0.0 | 7.0 | 0.00 | 0.00 | 0.00 | 35 | 1013.1 |
| 20260505213002 | 80 | 96 | 0.0 | 5.2 | 0.00 | 0.00 | 0.00 | 35 | 1013.1 |
| 20260505212501 | 80 | 96 | 0.0 | 5.2 | 0.00 | 0.00 | 0.00 | 36 | 1013.0 |
| 20260505212002 | 80 | 100 | 0.0 | 5.2 | 0.00 | 0.00 | 0.00 | 35 | 1013.1 |
| 20260505211502 | 81 | 99 | 0.0 | 7.0 | 0.00 | 0.00 | 0.00 | 34 | 1013.2 |
| 20260505211002 | 81 | 96 | 0.0 | 7.0 | 0.00 | 0.00 | 0.00 | 34 | 1013.2 |
| 20260505210502 | 81 | 84 | 1.7 | 3.5 | 0.00 | 0.00 | 0.00 | 34 | 1013.2 |
| 20260505210002 | 81 | 102 | 0.0 | 3.5 | 0.00 | 0.00 | 0.00 | 35 | 1013.2 |
| 20260505205501 | 81 | 107 | 0.0 | 3.5 | 0.00 | 0.00 | 0.00 | 34 | 1013.2 |
| 20260505205001 | 81 | 131 | 0.0 | 3.5 | 0.00 | 0.00 | 0.00 | 34 | 1013.4 |
| 20260505204501 | 81 | 115 | 1.7 | 3.5 | 0.00 | 0.00 | 0.00 | 33 | 1013.5 |
| 20260505204002 | 81 | 87 | 0.0 | 5.2 | 0.00 | 0.00 | 0.00 | 33 | 1013.4 |
| 20260505203502 | 81 | 99 | 0.0 | 7.0 | 0.00 | 0.00 | 0.00 | 33 | 1013.5 |
| 20260505203001 | 80 | 109 | 0.0 | 7.0 | 0.00 | 0.00 | 0.00 | 32 | 1013.3 |
| 20260505202501 | 80 | 110 | 0.0 | 5.2 | 0.00 | 0.00 | 0.00 | 32 | 1013.4 |
| 20260505202001 | 79 | 121 | 0.9 | 3.5 | 0.00 | 0.00 | 0.00 | 33 | 1013.4 |
| 20260505201502 | 79 | 82 | 0.0 | 5.2 | 0.00 | 0.00 | 0.00 | 33 | 1013.4 |
| 20260505201002 | 80 | 90 | 0.0 | 5.2 | 0.00 | 0.00 | 0.00 | 32 | 1013.4 |
| 20260505200501 | 80 | 108 | 0.0 | 1.7 | 0.00 | 0.00 | 0.00 | 32 | 1013.5 |
| 20260505200017 | 80 | 92 | 0.0 | 5.2 | 0.00 | 0.00 | 0.00 | 32 | 1013.5 |
| 20260505195502 | 80 | 94 | 0.0 | 5.2 | 0.00 | 0.00 | 0.00 | 31 | 1013.7 |
| 20260505195001 | 82 | 89 | 0.0 | 5.2 | 0.00 | 0.00 | 0.00 | 31 | 1013.7 |
| 20260505194502 | 82 | 102 | 0.0 | 5.2 | 0.00 | 0.00 | 0.00 | 31 | 1013.8 |
| 20260505194001 | 82 | 90 | 0.0 | 5.2 | 0.00 | 0.00 | 0.00 | 31 | 1013.8 |
| 20260505193502 | 81 | 64 | 0.0 | 5.2 | 0.00 | 0.00 | 0.00 | 31 | 1013.8 |
| 20260505193001 | 82 | 105 | 0.0 | 7.0 | 0.00 | 0.00 | 0.00 | 30 | 1013.9 |
| 20260505192501 | 82 | 98 | 0.0 | 7.0 | 0.00 | 0.00 | 0.00 | 29 | 1014.0 |
| 20260505192001 | 82 | 90 | 0.0 | 10.4 | 0.00 | 0.00 | 0.00 | 29 | 1013.9 |
| 20260505191501 | 81 | 118 | 0.9 | 10.4 | 0.00 | 0.00 | 0.00 | 29 | 1013.9 |
| 20260505191001 | 82 | 82 | 0.9 | 5.2 | 0.00 | 0.00 | 0.00 | 29 | 1013.9 |
| 20260505190501 | 82 | 109 | 0.0 | 5.2 | 0.00 | 0.00 | 0.00 | 30 | 1014.1 |
| 20260505190001 | 82 | 85 | 0.0 | 5.2 | 0.00 | 0.00 | 0.00 | 30 | 1014.1 |
| 20260505185501 | 82 | 101 | 0.0 | 5.2 | 0.00 | 0.00 | 0.00 | 31 | 1014.2 |
| 20260505185001 | 82 | 108 | 0.0 | 5.2 | 0.00 | 0.00 | 0.00 | 30 | 1014.4 |
| 20260505184501 | 82 | 90 | 0.0 | 12.2 | 0.00 | 0.00 | 0.00 | 29 | 1014.4 |
| 20260505184001 | 82 | 111 | 0.0 | 12.2 | 0.00 | 0.00 | 0.00 | 28 | 1014.5 |
| 20260505183500 | 82 | 105 | 0.0 | 7.0 | 0.00 | 0.00 | 0.00 | 29 | 1014.7 |
| 20260505183001 | 82 | 100 | 0.0 | 7.0 | 0.00 | 0.00 | 0.00 | 29 | 1014.7 |
| 20260505182500 | 82 | 110 | 0.0 | 5.2 | 0.00 | 0.00 | 0.00 | 30 | 1014.7 |
| 20260505182001 | 82 | 98 | 0.0 | 5.2 | 0.00 | 0.00 | 0.00 | 28 | 1015.0 |
| 20260505181501 | 81 | 98 | 0.0 | 7.0 | 0.00 | 0.00 | 0.00 | 29 | 1015.0 |
| 20260505181000 | 81 | 109 | 0.0 | 12.2 | 0.00 | 0.00 | 0.00 | 28 | 1015.1 |
| 20260505180500 | 81 | 108 | 0.0 | 12.2 | 0.00 | 0.00 | 0.00 | 30 | 1015.0 |
| 20260505180000 | 81 | 102 | 0.0 | 3.5 | 0.00 | 0.00 | 0.00 | 30 | 1015.1 |
| 20260505175500 | 82 | 96 | 0.0 | 3.5 | 0.00 | 0.00 | 0.00 | 29 | 1015.1 |
| 20260505175000 | 82 | 138 | 0.0 | 3.5 | 0.00 | 0.00 | 0.00 | 31 | 1015.1 |
| 20260505174500 | 81 | 90 | 0.0 | 8.7 | 0.00 | 0.00 | 0.00 | 28 | 1015.1 |
| 20260505174002 | 81 | 109 | 0.0 | 8.7 | 0.00 | 0.00 | 0.00 | 30 | 1015.2 |
| 20260505173501 | 81 | 98 | 0.0 | 5.2 | 0.00 | 0.00 | 0.00 | 30 | 1015.3 |
| 20260505173001 | 81 | 90 | 0.0 | 5.2 | 0.00 | 0.00 | 0.00 | 30 | 1015.4 |
| 20260505172501 | 80 | 109 | 0.0 | 3.5 | 0.00 | 0.00 | 0.00 | 32 | 1015.3 |
| 20260505172000 | 80 | 114 | 0.0 | 3.5 | 0.00 | 0.00 | 0.00 | 32 | 1015.3 |
| 20260505171501 | 80 | 105 | 0.0 | 3.5 | 0.00 | 0.00 | 0.00 | 33 | 1015.4 |
| 20260505171001 | 80 | 96 | 0.0 | 5.2 | 0.00 | 0.00 | 0.00 | 33 | 1015.5 |
| 20260505170501 | 80 | 121 | 0.0 | 5.2 | 0.00 | 0.00 | 0.00 | 34 | 1015.3 |
| 20260505170001 | 80 | 122 | 0.0 | 3.5 | 0.00 | 0.00 | 0.00 | 33 | 1015.5 |
| 20260505165500 | 80 | 94 | 0.0 | 7.0 | 0.00 | 0.00 | 0.00 | 35 | 1015.5 |
| 20260505165000 | 80 | 91 | 0.0 | 7.0 | 0.00 | 0.00 | 0.00 | 35 | 1015.6 |
| 20260505164501 | 79 | 88 | 0.9 | 5.2 | 0.00 | 0.00 | 0.00 | 36 | 1015.8 |
| 20260505164002 | 79 | 117 | 0.0 | 5.2 | 0.00 | 0.00 | 0.00 | 33 | 1015.7 |
| 20260505163502 | 79 | 138 | 0.9 | 8.7 | 0.00 | 0.00 | 0.00 | 33 | 1015.7 |
| 20260505163000 | 79 | 131 | 0.0 | 8.7 | 0.00 | 0.00 | 0.00 | 35 | 1015.7 |
| 20260505162500 | 79 | 113 | 0.0 | 5.2 | 0.00 | 0.00 | 0.00 | 35 | 1015.7 |
| 20260505162000 | 78 | 86 | 0.0 | 5.2 | 0.00 | 0.00 | 0.00 | 36 | 1015.8 |
| 20260505161500 | 78 | 86 | 0.9 | 5.2 | 0.00 | 0.00 | 0.00 | 36 | 1015.8 |
| 20260505161001 | 79 | 107 | 0.0 | 3.5 | 0.00 | 0.00 | 0.00 | 37 | 1016.0 |
| 20260505160501 | 79 | 134 | 0.9 | 7.0 | 0.00 | 0.00 | 0.00 | 38 | 1016.2 |
| 20260505153001 | 76 | 121 | 0.0 | 3.5 | 0.00 | 0.00 | 0.00 | 44 | 1016.5 |
| 20260505152500 | 76 | 113 | 0.0 | 3.5 | 0.00 | 0.00 | 0.00 | 44 | 1016.6 |
| 20260505152000 | 75 | 108 | 0.0 | 3.5 | 0.00 | 0.00 | 0.00 | 44 | 1016.6 |
| 20260505151500 | 75 | 123 | 0.9 | 3.5 | 0.00 | 0.00 | 0.00 | 44 | 1016.6 |
| 20260505151000 | 75 | 110 | 0.0 | 3.5 | 0.00 | 0.00 | 0.00 | 46 | 1016.6 |
| 20260505150500 | 75 | 126 | 0.9 | 3.5 | 0.00 | 0.00 | 0.00 | 46 | 1016.5 |